www.pogodaiklimat.ru

Погода и климат >> Архив погоды >> Россия >> Якутия >> Черский


ПОГОДА в Черском

  • Прогноз погоды в Черском
  • Монитор погоды в Черском
  • Климат города

АРХИВ ПОГОДЫ в Черском

Время (UTC), дата Ветер
(напр.,м/с)
 
Видим.   Явления Облачность Т
(С)
Тd
(С)
f
(%)
Тe
(С)
Тes
(С)
Комфортность P
(гПа)
Po
(гПа)
Тmin
(С)
Tmax
(С)
R
(мм)
R24
(мм)
S
(см)
18 18.05 ЮВ 4 20 км 1/0
[Ci]
+6.4 -1.0 59 +3 +4 1003.7 1000.6
21 18.05 ЮВ 4 20 км ясно +9.1 0.0 53 +7 +10 1003.2 1000.2 +4.9
00 19.05 ЮВ 6 20 км ясно +11.6 +1.5 50 +9 +13 1002.7 999.7
03 19.05 ЮВ 4 20 км 1/0
[Ci fib]
+13.8 -0.5 37 +13 +19 1002.3 999.3
06 19.05 Ю 1 20 км ясно +14.0 +0.6 40 +15 +20 1001.6 998.6
09 19.05 СВ 1 20 км ясно +13.2 +1.9 46 +14 +14 1001.5 998.5 +14.5
12 19.05 В 3 20 км ясно +10.0 +0.6 52 +8 +8 1001.9 998.9
15 19.05 ЮВ 4 20 км ясно +8.4 -2.7 45 +6 +6 1001.9 998.9
18 19.05 ЮВ 4 20 км ясно +8.1 -1.4 51 +5 +6 1002.0 998.9
21 19.05 ЮВ 4 20 км ясно +11.4 +1.5 51 +10 +13 1001.9 998.9 +8.1
00 20.05 ЮВ 5 20 км 1/0
[Ci sp]
+13.9 +1.1 42 +12 +17 1001.9 998.9
03 20.05 Ю 5 20 км 1/0
[Ac trans]
+15.2 +0.9 38 +14 +19 1001.1 998.1
06 20.05 ЮВ 5 20 км 8/5 1000 м
[Cu hum Ac trans]
+15.3 -0.5 34 +14 +15 1000.4 997.4
09 20.05 ЮВ 3 20 км 9/8 1500 м
[Sc Ac trans]
+12.0 +1.5 49 +11 +11 1000.9 997.9 +15.8
12 20.05 ЮВ 3 20 км 8/4 1500 м
[Sc Ac As]
+9.6 +1.7 58 +8 +8 1002.0 999.0
15 20.05 ЮВ 3 20 км 3/0
[Ac As]
+6.6 -0.1 62 +4 +4 1002.8 999.7
18 20.05 ЮВ 2 20 км 3/3 600 м
[Sc]
+8.0 +0.9 61 +6 +7 1002.3 999.2
21 20.05 СВ 2 20 км 3/0
[Ac trans]
+11.0 +1.3 51 +10 +14 1002.1 999.1 +6.6
00 21.05 В 4 20 км 1/0
[Ac trans]
+13.1 -0.2 40 +12 +18 1001.8 998.8
03 21.05 ЮВ 4 20 км 3/0
[Ac cast]
+14.7 +1.3 40 +14 +19 1000.6 997.6
06 21.05 СВ 5 20 км 3/3 1000 м
[Cu hum]
+15.1 +1.3 39 +14 +16 999.7 996.7
09 21.05 СВ 5 20 км 3/3 1000 м
[Cu hum]
+12.4 -0.9 40 +11 +11 1000.0 997.0 +15.1
12 21.05 В 3 20 км ясно +7.2 +0.6 63 +5 +5 1002.0 998.9
15 21.05 В 3 20 км ясно +5.0 -1.9 61 +2 +2 1003.2 1000.1
18 21.05 СВ 2 20 км ясно +6.3 -1.5 57 +4 +6 1004.4 1001.3
21 21.05 В 3 20 км ясно +9.0 -3.3 42 +7 +12 1004.9 1001.9 +4.3
00 22.05 ЮВ 3 20 км ясно +11.5 -0.2 44 +10 +18 1004.6 1001.6
03 22.05 СЗ 1 20 км 3/3
[Cu hum]
+12.5 -1.2 39 +13 +20 1004.5 1001.5
06 22.05 ЮВ 2 20 км 3/3 600 м
[Cu hum]
+13.6 -0.5 38 +13 +16 1004.4 1001.4
09 22.05 В 4 20 км ясно +10.4 -1.4 44 +8 +9 1005.7 1002.7 +14.0
12 22.05 СВ 4 20 км 1/0
[As op]
+5.4 -1.4 62 +2 +2 1007.1 1004.0
15 22.05 СВ 2 20 км ясно +2.2 -2.8 69 -1 -1 1007.8 1004.7
18 22.05 В 2 20 км ясно +3.4 -3.4 61 +1 +2 1008.6 1005.5
21 22.05 штиль 0 20 км ясно +6.2 -3.4 50 +6 +13 1009.2 1006.1 +2.2
00 23.05 В 3 20 км ясно +9.8 -6.0 32 +8 +16 1009.1 1006.0
03 23.05 СВ 4 20 км ясно +10.9 -4.7 33 +9 +15 1008.7 1005.7
06 23.05 СВ 4 20 км 1/0
[Ci fib]
+9.9 -3.6 38 +8 +11 1009.0 1005.9
09 23.05 СВ 4 20 км 3/0
[Ci fib]
+5.5 -3.3 53 +2 +3 1010.3 1007.2 +13.4
12 23.05 В 4
{10}
20 км 4/0
[Ac As Ci fib]
+1.2 -6.7 56 -3 -3 1011.7 1008.5
15 23.05 В 4
{11}
20 км 8/0
[Ac As]
-0.5 -7.4 60 -6 -6 1012.2 1009.0
18 23.05 В 3 20 км 8/0
[Ci fib]
+0.8 -8.2 51 -3 -2 1012.8 1009.6
21 23.05 В 3 20 км 3/0
[Ci fib]
+4.8 -7.3 41 +2 +6 1013.1 1010.0 -1.1
00 24.05 В 2 20 км 3/0
[Ci fib]
+7.2 -1.7 53 +6 +15 опасность
простуды
1013.0 1009.9
03 24.05 СВ 4 20 км 8/0
[Ci fib]
+9.2 -4.4 38 +7 +12 1011.8 1008.7
06 24.05 В 4 20 км 6/0
[Ci fib]
+7.6 -3.6 45 +5 +8 1011.2 1008.1
09 24.05 В 4 20 км 8/0
[Ci fib]
+5.2 -4.5 50 +2 +2 1010.9 1007.8 +9.6
12 24.05 В 5 20 км 1/0
[Ci fib]
+0.4 -6.2 61 -5 -5 1010.6 1007.4
15 24.05 В 4 20 км ясно +0.2 -7.8 55 -5 -5 1009.9 1006.7
18 24.05 В 2 20 км ясно +1.6 -8.9 46 -1 0 1009.6 1006.4
21 24.05 ЮВ 3 20 км ясно +5.9 -7.7 37 +3 +8 1007.9 1004.8 -1.4
00 25.05 ЮВ 3 20 км ясно +9.3 -6.4 32 +8 +16 1006.3 1003.2
03 25.05 В 2 20 км ясно +10.6 -3.6 37 +10 +19 1004.3 1001.3
06 25.05 В 4 20 км ясно +10.4 -0.7 46 +8 +11 1003.1 1000.1
09 25.05 В 4 20 км ясно +6.9 -3.1 49 +4 +5 1002.8 999.7 +12.4
12 25.05 В 5 20 км ясно +1.6 -5.4 60 -4 -4 1002.8 999.7
15 25.05 В 3 20 км ясно -1.0 -6.8 65 -5 -5 1003.0 999.9

 

Местоположение метеостанции Черский (Якутия, Россия): широта 68.73 долгота 161.30 высота над уровнем моря 28 м.

В архиве по умолчанию представлена погода в Черском за последнюю неделю. Архивные данные за месяц целиком и за предыдущие месяцы, начиная с января 2011 года, Вы можете получить, выбрав интересующий диапазон дат из раскрывающегося списка и нажав кнопку "Ввод!".

Внимание! Время в таблицах - всемирное. Для получения местного времени необходимо прибавить поправку, которая в Черском равна 11 ч.

Смотрите также архив погоды в соседних городах и на ближайших метеорологических станциях:

Погода в Анюйске (Чукотка, Россия) (43 км)
Погода в Константиновской (Чукотка, Россия) (65 км)
Погода в Бухте Амбарчик (Чукотка, Россия) (107 км)
Погода в Колымской (Якутия, Россия) (109 км)
Погода на Островном (Чукотка, Россия) (133 км)
Погода в Билибино (Чукотка, Россия) (222 км)
Погода в Раучуе (Чукотка, Россия) (223 км)
Погода в Баимке (Чукотка, Россия) (274 км)
Погода в Андрюшкино (Якутия, Россия) (276 км)
Погода на Айон Острове (Чукотка, Россия) (291 км)

Пояснения к столбцам:

Ветер - указаны скорость ветра в м/с - средняя за 10 мин, порывы в срок и между сроками (в фигурных скобках) и направление, откуда дует ветер: С - северный, СВ - северо-восточный, В - восточный, ЮВ - юго-восточный, Ю - южный, ЮЗ - юго-западный, З - западный, СЗ - северо-западный.
Видимость - горизонтальная дальность видимости в метрах или километрах. При видимости от 1 до 10 км при отсутствии осадков обычно наблюдается дымка, при ухудшении видимости до 1 км и менее - туман. В сухую погоду видимость может ухудшаться дымом, пылью или мглою.
Явления - указаны атмосферные явления, наблюдавшиеся в срок или в последний час перед сроком; фигурными скобками обозначены явления, наблюдавшиеся между сроками (за 1-3 часа до срока); квадратными скобками обозначены град или гололедные отложения с указанием их диаметра в мм.
Облачность - указаны через наклонную черту общая и нижняя облачность в баллах и высота нижней границы облаков в метрах; квадратными скобками обозначены формы облаков: Ci - перистые, Cs - перисто-слоистые, Cc - перисто-кучевые, Ac - высококучевые, As - высокослоистые, Sc - слоисто-кучевые, Ns - слоисто-дождевые, Cu - кучевые, Cb - кучево-дождевые. Подробнее классификацию облаков см. в Атласе облаков (PDF).
T - Температура воздуха - температура, измеренная на высоте 2 м над землей.
Td - Температура точки росы - температура, при понижении до которой содержащийся в воздухе водяной пар достигнет насыщения.
f - Относительная влажность воздуха - влажноcть воздуха, измеренная на высоте 2 м над землей.
Te - Эффективная температура - температура, которую ощущает одетый по сезону человек в тени. Характеристика душности погоды. При расчете учитывается влияние влажности воздуха и скорости ветра на теплоощущения человека.
Tes - Эффективная температура на солнце - температура, которую ощущает человек, с поправкой на солнечный нагрев. Характеристика знойности погоды. Зависит от высоты солнца над горизонтом, облачности и скорости ветра. Ночью, в пасмурную погоду, а также при ветре 12 м/с и более поправка равна нулю.
P - Атмосферное давление - приведенное к уровню моря атмосферное давление.
Po - Атмосферное давление - измеренное на уровне метеостанции атмосферное давление.
Tmin - Минимальная температура - минимум температуры воздуха на высоте 2 м над землей.
Tmax - Максимальная температура - максимум температуры воздуха на высоте 2 м над землей.
R - Количество осадков - Количество выпавших осадков за период времени, мм. При наведении курсора мыши на число - период времени, за который выпало указанное количество осадков.
R24 - Количество осадков - Количество выпавших осадков за 24 часа, мм.
S - Снежный покров - Высота снежного покрова, см. При наведении курсора мыши на число - состояние снежного покрова и степень покрытия местности в баллах.